Regional Weather Roundup
Issued by NWS

Home | Current Version | Previous Version | Graphics & Text | Print | Product List | Glossary On
Versions: 1 2 3 4 5 6 7 8 9 10 11 12 13 14 15 16 17 18 19 20 21 22 23 24 25 26 27 28 29 30 31 32 33 34 35 36 37 38 39 40 41 42 43 44 45 46 47 48 49 50
788
ASUS43 KIND 220609
RWRIN

WEATHER ROUNDUP FOR INDIANA
NATIONAL WEATHER SERVICE INDIANAPOLIS IN
200 AM EDT SUN OCT 22 2017

NOTE: "FAIR" INDICATES FEW OR NO CLOUDS BELOW 12,000 FEET WITH NO
SIGNIFICANT WEATHER AND/OR OBSTRUCTIONS TO VISIBILITY.

* - STATION DOES NOT REPORT WEATHER SUCH AS PRECIPITATION OR FOG.

+ - STATION NOT QUALITY CONTROLLED BY THE NATIONAL WEATHER SERVICE.
    USE DATA WITH CAUTION...ESPECIALLY DEWPOINT AND RELATIVE
    HUMIDITY OBSERVATIONS.

INZ001>003-010>013-019-020-220700-
NORTHWEST INDIANA

CITY           SKY/WX    TMP DP  RH WIND       PRES   REMARKS
GARY /AIRPORT/ CLEAR     67  49  53 S8        30.03F
KNOX *+        CLEAR     63  50  63 S10       30.08S
LA PORTE +     CLEAR     62  50  65 S7        30.08F
6HR MIN TEMP:  62; 6HR MAX TEMP:  68;

MICHIGAN CITY+ PTCLDY    64  50  59 S9        30.07S
MONTICELLO +   CLEAR     65  48  55 S7        30.09R
6HR MIN TEMP:  64; 6HR MAX TEMP:  69;

RENSSELAER +   PTCLDY    61  45  55 SE8       30.08S
VALPARAISO     PTCLDY    64  51  62 S8        30.07F
6HR MIN TEMP:  64; 6HR MAX TEMP:  71;


$$

LMZ046-743>745-220700-
SOUTHERN LAKE MICHIGAN

STATION/POSITION TIME  TEMP    WIND        PRES    WAVE
                       AIR SEA DIR/SP/G            HT
                 (UTC) (F)     (DEG/KT/KT) (MB)    (FT)
BURNS HARBOR     0540   66     180/ 14/ 22 1017.3F
MICHIGAN CITY    0540   66     160/ 14/ 17   N/A
5NW MICH CITY    0600   64 58  180/ 16/ 21   N/A     2

$$

INZ004-005-014>016-021>024-220700-
NORTH CENTRAL INDIANA

CITY           SKY/WX    TMP DP  RH WIND       PRES   REMARKS
GOSHEN         CLEAR     61  46  57 S8        30.11R
6HR MIN TEMP:  61; 6HR MAX TEMP:  66;

LOGANSPORT +   CLEAR     61  48  63 S7        30.12R
PERU/GRISSOM   PTCLDY    61  49  64 S9        30.11R
6HR MIN TEMP:  61; 6HR MAX TEMP:  66;

SOUTH BEND     CLEAR     63  49  60 S8        30.10R
6HR MIN TEMP:  63; 6HR MAX TEMP:  68;

WARSAW +       CLEAR     61  46  59 S3        30.12S

$$

INZ006>009-017-018-025>027-220700-
NORTHEAST INDIANA

CITY           SKY/WX    TMP DP  RH WIND       PRES   REMARKS
AUBURN +       CLEAR     61  45  55 CALM      30.15S
FORT WAYNE     PTCLDY    57  46  66 S6        30.14S
6HR MIN TEMP:  56; 6HR MAX TEMP:  65;

HUNTINGTON +   CLEAR     61  46  57 S6        30.13R
6HR MIN TEMP:  60; 6HR MAX TEMP:  67;

KENDALLVILLE + CLEAR     59  47  64 S7        30.14S

$$

INZ028-029-035-036-043>045-051>053-220700-
WEST CENTRAL INDIANA

CITY           SKY/WX    TMP DP  RH WIND       PRES   REMARKS
CRAWFORDSVL +  PTCLDY    59  50  72 SE7       30.11R
GREENCASTLE +  CLOUDY    59  48  67 SE3       30.12R
LAFAYETTE      PTCLDY    63  51  65 S5        30.09R
6HR MIN TEMP:  63; 6HR MAX TEMP:  69;

TERRE HAUTE    CLEAR     65  52  62 S9        30.10R
6HR MIN TEMP:  62; 6HR MAX TEMP:  68;


$$

INZ030>032-037>040-046>048-054>057-064-065-220700-
CENTRAL INDIANA

CITY           SKY/WX    TMP DP  RH WIND       PRES   REMARKS
CP ATTERBURY + CLOUDY    59  48  67 S5        30.15R
FISHERS *+     CLOUDY    61  50  67 S8        30.14
FRANKFORT +    CLOUDY    65  50  58 S5        30.12R
6HR MIN TEMP:  64; 6HR MAX TEMP:  67;

GREENWOOD *+   CLOUDY    63  50  62 SE7       30.14S
INDIANAPOLIS   PTCLDY    60  49  66 SE7       30.13R
6HR MIN TEMP:  60; 6HR MAX TEMP:  67;

-EAGLE CREEK   PTCLDY    61  48  62 SE3       30.12S
6HR MIN TEMP:  60; 6HR MAX TEMP:  70;

KOKOMO +       PTCLDY    61  49  64 S9        30.13R
6HR MIN TEMP:  60; 6HR MAX TEMP:  68;

MT COMFORT *+  PTCLDY    59  52  77 S6        30.14S
SHELBYVILLE    CLEAR     61  47  59 SE10      30.14R
6HR MIN TEMP:  60; 6HR MAX TEMP:  65;

ZIONSVILLE +   MOCLDY    61  48  63 S8        30.13R
6HR MIN TEMP:  59; 6HR MAX TEMP:  66;


$$

INZ033-034-041-042-049-050-058-059-220700-
EAST CENTRAL INDIANA

CITY           SKY/WX    TMP DP  RH WIND       PRES   REMARKS
MUNCIE         CLEAR     62  46  55 S8        30.14S
6HR MIN TEMP:  62; 6HR MAX TEMP:  69;

RICHMOND +     CLEAR     50  45  81 S7        30.19R

$$

INZ060-061-067>069-081>083-085>088-220700-
SOUTHWEST INDIANA

CITY           SKY/WX    TMP DP  RH WIND       PRES   REMARKS
EVANSVILLE     CLOUDY    63  55  75 SE5       30.10F
6HR MIN TEMP:  63; 6HR MAX TEMP:  71; 6HR PCP: TRACE;

HUNTINGBURG +  CLEAR     64  52  64 S8        30.12F
6HR MIN TEMP:  62; 6HR MAX TEMP:  65;

WASHINGTON +   CLOUDY    62  49  63 S7        30.10F
6HR MIN TEMP:  61; 6HR MAX TEMP:  65;


$$

INZ062-063-066-070>080-084-089>092-220700-
SOUTH CENTRAL AND SOUTHEAST INDIANA

CITY           SKY/WX    TMP DP  RH WIND       PRES   REMARKS
BEDFORD +      CLEAR     61  48  63 SE6       30.13S
BLOOMINGTON    PTCLDY    61  47  59 S6        30.12S
6HR MIN TEMP:  61; 6HR MAX TEMP:  68;

MADISON *+     CLEAR     59  46  63 SE5       30.19S
NORTH VERNON + CLEAR     59  46  63 SE3       30.17R
SEYMOUR +      CLOUDY    59  48  67 S3        30.16R

$$





USA.gov is the U.S. government's official web portal to all federal, state and local government web resources and services.